Location: Newark
(46.9000°N, 28.3500°E)
Time: 15:48:22
(UTC+00:00)

Explorer 7 - Pass Details

Date: 27 August 2019
Orbit: 485 x 680 km, 50.3° (Epoch: 18 October)

Event Time Altitude Azimuth Distance (km) Brightness Sun altitude
Rises 06:33:19 0° 240° (WSW) 3,023 10.3 31.8°
Reaches altitude 10° 06:35:42 10° 239° (WSW) 2,103 9.6 32.1°
Maximum altitude 06:40:34 76° 154° (SSE) 685 8.1 32.9°
Drops below altitude 10° 06:45:16 10° 69° (ENE) 2,031 10.4 33.6°
Sets 06:47:32 0° 68° (ENE) 2,912 11.1 34.0°
